Time,TemperatureF,DewpointF,PressureIn,WindDirection,WindDirectionDegrees,WindSpeedMPH,WindSpeedGustMPH,Humidity,HourlyPrecipIn,Conditions,Clouds,dailyrainin,SoftwareType,DateUTC
2013-06-09 00:03:00,57.0,54.0,30.05,ENE,76,0.0,0.0,90,0.00,,,0.00,,2013-06-09 04:03:00,
2013-06-09 00:12:00,57.0,54.0,30.05,ENE,76,0.0,0.0,90,0.00,,,0.00,,2013-06-09 04:12:00,
2013-06-09 00:23:00,57.0,54.0,30.05,ENE,76,0.0,0.0,91,0.00,,,0.00,,2013-06-09 04:23:00,
2013-06-09 00:33:00,56.0,53.0,30.05,ENE,76,0.0,0.0,91,0.00,,,0.00,,2013-06-09 04:33:00,
2013-06-09 00:43:00,56.0,53.0,30.05,ENE,76,0.0,0.0,91,0.00,,,0.00,,2013-06-09 04:43:00,
2013-06-09 00:53:00,56.0,53.0,30.05,ENE,76,0.0,0.0,91,0.00,,,0.00,,2013-06-09 04:53:00,
2013-06-09 01:02:00,56.0,53.0,30.05,ENE,76,0.0,0.0,91,0.00,,,0.00,,2013-06-09 05:02:00,
2013-06-09 01:12:00,56.0,53.0,30.05,ENE,76,0.0,0.0,91,0.00,,,0.00,,2013-06-09 05:12:00,
2013-06-09 01:22:00,55.0,52.0,30.06,ENE,76,0.0,0.0,91,0.00,,,0.00,,2013-06-09 05:22:00,
2013-06-09 01:32:00,55.0,52.0,30.06,ENE,76,0.0,0.0,91,0.00,,,0.00,,2013-06-09 05:32:00,
2013-06-09 01:42:00,55.0,52.0,30.06,ENE,76,0.0,0.0,91,0.00,,,0.00,,2013-06-09 05:42:00,
2013-06-09 01:52:00,55.0,53.0,30.06,ENE,76,0.0,0.0,92,0.00,,,0.00,,2013-06-09 05:52:00,
2013-06-09 02:02:00,55.0,53.0,30.06,ENE,76,0.0,0.0,92,0.00,,,0.00,,2013-06-09 06:02:00,
2013-06-09 02:12:00,55.0,53.0,30.06,ENE,76,0.0,0.0,92,0.00,,,0.00,,2013-06-09 06:12:00,
2013-06-09 02:22:00,54.0,52.0,30.06,ENE,76,0.0,0.0,92,0.00,,,0.00,,2013-06-09 06:22:00,
2013-06-09 02:32:00,54.0,52.0,30.06,ENE,76,0.0,0.0,92,0.00,,,0.00,,2013-06-09 06:32:00,
2013-06-09 02:42:00,54.0,52.0,30.06,ENE,76,0.0,0.0,92,0.00,,,0.00,,2013-06-09 06:42:00,
2013-06-09 02:52:00,54.0,52.0,30.06,ENE,76,0.0,0.0,92,0.00,,,0.00,,2013-06-09 06:52:00,
2013-06-09 03:02:00,54.0,52.0,30.07,ENE,76,0.0,0.0,92,0.00,,,0.00,,2013-06-09 07:02:00,
2013-06-09 03:12:00,54.0,52.0,30.07,ENE,76,0.0,0.0,92,0.00,,,0.00,,2013-06-09 07:12:00,
2013-06-09 03:22:00,54.0,52.0,30.06,ENE,76,0.0,1.0,92,0.00,,,0.00,,2013-06-09 07:22:00,
2013-06-09 03:32:00,54.0,52.0,30.06,ENE,76,0.0,1.0,93,0.00,,,0.00,,2013-06-09 07:32:00,
2013-06-09 03:42:00,54.0,52.0,30.06,ENE,76,0.0,1.0,93,0.00,,,0.00,,2013-06-09 07:42:00,
2013-06-09 03:52:00,54.0,52.0,30.06,ENE,76,0.0,1.0,92,0.00,,,0.00,,2013-06-09 07:52:00,
2013-06-09 04:02:00,54.0,52.0,30.06,ENE,76,0.0,0.0,92,0.00,,,0.00,,2013-06-09 08:02:00,
2013-06-09 04:12:00,54.0,52.0,30.06,ENE,76,0.0,0.0,92,0.00,,,0.00,,2013-06-09 08:12:00,
2013-06-09 04:22:00,54.0,52.0,30.06,ENE,76,0.0,0.0,92,0.00,,,0.00,,2013-06-09 08:22:00,
2013-06-09 04:32:00,54.0,52.0,30.06,ENE,76,0.0,0.0,92,0.00,,,0.00,,2013-06-09 08:32:00,
2013-06-09 04:42:00,54.0,52.0,30.06,ENE,76,0.0,0.0,92,0.00,,,0.00,,2013-06-09 08:42:00,
2013-06-09 04:53:00,53.0,51.0,30.06,ENE,76,0.0,0.0,93,0.00,,,0.00,,2013-06-09 08:53:00,
2013-06-09 05:02:00,53.0,51.0,30.05,ENE,76,0.0,0.0,93,0.00,,,0.00,,2013-06-09 09:02:00,
2013-06-09 05:12:00,53.0,51.0,30.05,ENE,76,0.0,0.0,93,0.00,,,0.00,,2013-06-09 09:12:00,
2013-06-09 05:22:00,53.0,51.0,30.05,ENE,76,0.0,0.0,93,0.00,,,0.00,,2013-06-09 09:22:00,
2013-06-09 05:33:00,53.0,51.0,30.05,ENE,76,0.0,1.0,93,0.00,,,0.00,,2013-06-09 09:33:00,
2013-06-09 05:43:00,53.0,51.0,30.05,ENE,76,0.0,1.0,93,0.00,,,0.00,,2013-06-09 09:43:00,
2013-06-09 05:53:00,54.0,52.0,30.06,ENE,76,0.0,1.0,93,0.00,,,0.00,,2013-06-09 09:53:00,
2013-06-09 06:03:00,54.0,52.0,30.06,ENE,76,0.0,1.0,93,0.00,,,0.00,,2013-06-09 10:03:00,
2013-06-09 06:12:00,54.0,52.0,30.06,ENE,76,0.0,1.0,93,0.00,,,0.00,,2013-06-09 10:12:00,
2013-06-09 06:23:00,54.0,52.0,30.05,ENE,76,0.0,1.0,92,0.00,,,0.00,,2013-06-09 10:23:00,
2013-06-09 06:32:00,54.0,52.0,30.06,ENE,76,0.0,0.0,92,0.00,,,0.00,,2013-06-09 10:32:00,
2013-06-09 06:43:00,54.0,52.0,30.06,ENE,76,0.0,0.0,92,0.00,,,0.00,,2013-06-09 10:43:00,
2013-06-09 06:52:00,54.0,52.0,30.06,ENE,76,0.0,0.0,92,0.00,,,0.00,,2013-06-09 10:52:00,
2013-06-09 07:02:00,54.0,52.0,30.06,WNW,294,0.0,0.0,93,0.00,,,0.00,,2013-06-09 11:02:00,
2013-06-09 07:12:00,54.0,52.0,30.06,WNW,294,0.0,0.0,93,0.00,,,0.00,,2013-06-09 11:12:00,
2013-06-09 07:22:00,55.0,53.0,30.06,SE,140,0.0,1.0,93,0.00,,,0.00,,2013-06-09 11:22:00,
2013-06-09 07:32:00,56.0,54.0,30.06,South,173,0.0,1.0,92,0.00,,,0.00,,2013-06-09 11:32:00,
2013-06-09 07:42:00,56.0,54.0,30.06,South,173,0.0,1.0,92,0.00,,,0.00,,2013-06-09 11:42:00,
2013-06-09 07:53:00,57.0,54.0,30.06,South,173,0.0,1.0,91,0.00,,,0.00,,2013-06-09 11:53:00,
2013-06-09 08:02:00,58.0,54.0,30.06,SE,138,1.0,5.0,88,0.00,,,0.00,,2013-06-09 12:02:00,
2013-06-09 08:12:00,58.0,54.0,30.06,SE,138,1.0,5.0,88,0.00,,,0.00,,2013-06-09 12:12:00,
2013-06-09 08:22:00,59.0,55.0,30.06,SE,138,2.0,4.0,86,0.00,,,0.00,,2013-06-09 12:22:00,
2013-06-09 08:32:00,60.0,55.0,30.06,SE,139,0.0,1.0,85,0.00,,,0.00,,2013-06-09 12:32:00,
2013-06-09 08:42:00,60.0,55.0,30.06,SE,139,0.0,1.0,85,0.00,,,0.00,,2013-06-09 12:42:00,
2013-06-09 08:53:00,61.0,56.0,30.06,SE,139,0.0,2.0,85,0.00,,,0.00,,2013-06-09 12:53:00,
2013-06-09 09:02:00,61.0,56.0,30.06,SE,140,2.0,5.0,83,0.00,,,0.00,,2013-06-09 13:02:00,
2013-06-09 09:12:00,61.0,56.0,30.06,SE,140,2.0,5.0,83,0.00,,,0.00,,2013-06-09 13:12:00,
2013-06-09 09:22:00,62.0,57.0,30.06,SE,146,0.0,2.0,83,0.00,,,0.00,,2013-06-09 13:22:00,
2013-06-09 09:32:00,62.0,57.0,30.05,SE,146,0.0,6.0,83,0.00,,,0.00,,2013-06-09 13:32:00,
2013-06-09 09:42:00,62.0,57.0,30.05,SE,146,0.0,6.0,83,0.00,,,0.00,,2013-06-09 13:42:00,
2013-06-09 09:52:00,63.0,57.0,30.04,SE,145,0.0,6.0,81,0.00,,,0.00,,2013-06-09 13:52:00,
2013-06-09 10:02:00,64.0,57.0,30.04,SE,134,2.0,7.0,79,0.00,,,0.00,,2013-06-09 14:02:00,
2013-06-09 10:12:00,64.0,57.0,30.04,SE,134,2.0,7.0,79,0.00,,,0.00,,2013-06-09 14:12:00,
2013-06-09 10:22:00,66.0,59.0,30.04,ESE,111,2.0,7.0,77,0.00,,,0.00,,2013-06-09 14:22:00,
2013-06-09 10:32:00,68.0,59.0,30.04,ESE,119,5.0,8.0,74,0.00,,,0.00,,2013-06-09 14:32:00,
2013-06-09 10:42:00,68.0,59.0,30.04,ESE,119,5.0,8.0,74,0.00,,,0.00,,2013-06-09 14:42:00,
2013-06-09 10:52:00,69.0,59.0,30.04,SW,229,8.0,12.0,71,0.00,,,0.00,,2013-06-09 14:52:00,
2013-06-09 11:02:00,70.0,60.0,30.03,SSE,168,5.0,11.0,71,0.00,,,0.00,,2013-06-09 15:02:00,
2013-06-09 11:12:00,70.0,60.0,30.03,SSE,168,5.0,11.0,71,0.00,,,0.00,,2013-06-09 15:12:00,
2013-06-09 11:22:00,71.0,60.0,30.03,SE,132,9.0,13.0,69,0.00,,,0.00,,2013-06-09 15:22:00,
2013-06-09 11:33:00,72.0,61.0,30.03,SSW,211,6.0,13.0,68,0.00,,,0.00,,2013-06-09 15:33:00,
2013-06-09 11:43:00,72.0,61.0,30.03,SSW,211,6.0,13.0,68,0.00,,,0.00,,2013-06-09 15:43:00,
2013-06-09 11:53:00,73.0,61.0,30.03,SSW,197,9.0,12.0,67,0.00,,,0.00,,2013-06-09 15:53:00,
2013-06-09 12:03:00,74.0,61.0,30.03,SSW,210,5.0,13.0,65,0.00,,,0.00,,2013-06-09 16:03:00,
2013-06-09 12:13:00,74.0,61.0,30.03,SSW,210,5.0,13.0,65,0.00,,,0.00,,2013-06-09 16:13:00,
2013-06-09 12:23:00,75.0,62.0,30.03,SSW,204,5.0,11.0,64,0.00,,,0.00,,2013-06-09 16:23:00,
2013-06-09 12:33:00,75.0,62.0,30.03,WSW,252,5.0,12.0,63,0.00,,,0.00,,2013-06-09 16:33:00,
2013-06-09 12:42:00,75.0,62.0,30.03,WSW,252,5.0,12.0,63,0.00,,,0.00,,2013-06-09 16:42:00,
2013-06-09 12:53:00,76.0,62.0,30.02,SSW,202,6.0,11.0,63,0.00,,,0.00,,2013-06-09 16:53:00,
2013-06-09 13:03:00,76.0,62.0,30.01,SW,228,3.0,13.0,61,0.00,,,0.00,,2013-06-09 17:03:00,
2013-06-09 13:12:00,76.0,62.0,30.01,SW,228,3.0,13.0,61,0.00,,,0.00,,2013-06-09 17:12:00,
2013-06-09 13:22:00,77.0,62.0,30.01,SE,135,7.0,12.0,60,0.00,,,0.00,,2013-06-09 17:22:00,
2013-06-09 13:32:00,76.0,61.0,30.01,South,175,5.0,9.0,59,0.00,,,0.00,,2013-06-09 17:32:00,
2013-06-09 13:42:00,76.0,61.0,30.01,South,175,5.0,9.0,59,0.00,,,0.00,,2013-06-09 17:42:00,
2013-06-09 13:52:00,76.0,62.0,30.01,SW,216,2.0,9.0,61,0.00,,,0.00,,2013-06-09 17:52:00,
2013-06-09 14:02:00,77.0,62.0,30.00,WSW,238,7.0,14.0,60,0.00,,,0.00,,2013-06-09 18:02:00,
2013-06-09 14:12:00,77.0,62.0,30.00,WSW,238,7.0,14.0,60,0.00,,,0.00,,2013-06-09 18:12:00,
2013-06-09 14:22:00,77.0,62.0,30.00,SW,225,6.0,15.0,60,0.00,,,0.00,,2013-06-09 18:22:00,
2013-06-09 14:32:00,77.0,61.0,29.99,SSW,202,6.0,17.0,58,0.00,,,0.00,,2013-06-09 18:32:00,
2013-06-09 14:42:00,77.0,61.0,29.99,SSW,202,6.0,17.0,58,0.00,,,0.00,,2013-06-09 18:42:00,
2013-06-09 14:52:00,77.0,61.0,29.99,SW,231,5.0,14.0,58,0.00,,,0.00,,2013-06-09 18:52:00,
2013-06-09 15:02:00,77.0,61.0,29.98,East,94,3.0,14.0,58,0.00,,,0.00,,2013-06-09 19:02:00,
2013-06-09 15:12:00,77.0,61.0,29.98,East,94,3.0,14.0,58,0.00,,,0.00,,2013-06-09 19:12:00,
2013-06-09 15:22:00,78.0,61.0,29.98,SSE,150,5.0,12.0,56,0.00,,,0.00,,2013-06-09 19:22:00,
2013-06-09 15:32:00,79.0,62.0,29.97,South,173,6.0,14.0,56,0.00,,,0.00,,2013-06-09 19:32:00,
2013-06-09 15:42:00,79.0,62.0,29.97,South,173,6.0,14.0,56,0.00,,,0.00,,2013-06-09 19:42:00,
2013-06-09 15:52:00,79.0,61.0,29.97,SSW,194,8.0,15.0,54,0.00,,,0.00,,2013-06-09 19:52:00,
2013-06-09 16:02:00,79.0,61.0,29.96,SE,128,8.0,14.0,54,0.00,,,0.00,,2013-06-09 20:02:00,
2013-06-09 16:12:00,79.0,61.0,29.96,SE,128,8.0,14.0,54,0.00,,,0.00,,2013-06-09 20:12:00,
2013-06-09 16:22:00,78.0,61.0,29.95,SE,134,8.0,12.0,55,0.00,,,0.00,,2013-06-09 20:22:00,
2013-06-09 16:32:00,78.0,61.0,29.95,SSE,163,2.0,11.0,55,0.00,,,0.00,,2013-06-09 20:32:00,
2013-06-09 16:42:00,78.0,61.0,29.95,SSE,163,2.0,11.0,55,0.00,,,0.00,,2013-06-09 20:42:00,
2013-06-09 16:52:00,79.0,60.0,29.94,ESE,116,6.0,13.0,53,0.00,,,0.00,,2013-06-09 20:52:00,
2013-06-09 17:02:00,79.0,61.0,29.93,South,178,9.0,17.0,55,0.00,,,0.00,,2013-06-09 21:02:00,
2013-06-09 17:12:00,78.0,61.0,29.93,South,189,4.0,20.0,55,0.00,,,0.00,,2013-06-09 21:12:00,
2013-06-09 17:22:00,78.0,61.0,29.93,South,189,4.0,20.0,55,0.00,,,0.00,,2013-06-09 21:22:00,
2013-06-09 17:33:00,78.0,61.0,29.93,SE,138,6.0,15.0,55,0.00,,,0.00,,2013-06-09 21:33:00,
2013-06-09 17:43:00,78.0,61.0,29.93,SE,138,6.0,15.0,55,0.00,,,0.00,,2013-06-09 21:43:00,
2013-06-09 17:53:00,78.0,61.0,29.92,SE,134,4.0,13.0,56,0.00,,,0.00,,2013-06-09 21:53:00,
2013-06-09 18:02:00,78.0,62.0,29.92,South,171,3.0,12.0,57,0.00,,,0.00,,2013-06-09 22:02:00,
2013-06-09 18:13:00,78.0,61.0,29.93,SW,217,10.0,15.0,56,0.00,,,0.00,,2013-06-09 22:13:00,
2013-06-09 18:23:00,78.0,61.0,29.93,SW,217,10.0,15.0,56,0.00,,,0.00,,2013-06-09 22:23:00,
2013-06-09 18:33:00,77.0,60.0,29.93,SE,132,8.0,18.0,56,0.00,,,0.00,,2013-06-09 22:33:00,
2013-06-09 18:42:00,77.0,60.0,29.93,SE,132,8.0,18.0,56,0.00,,,0.00,,2013-06-09 22:42:00,
2013-06-09 18:52:00,77.0,61.0,29.93,SE,126,6.0,13.0,57,0.00,,,0.00,,2013-06-09 22:52:00,
2013-06-09 19:02:00,77.0,61.0,29.92,South,188,1.0,19.0,57,0.00,,,0.00,,2013-06-09 23:02:00,
2013-06-09 19:12:00,76.0,60.0,29.92,ESE,119,3.0,14.0,58,0.00,,,0.00,,2013-06-09 23:12:00,
2013-06-09 19:22:00,76.0,60.0,29.92,ESE,119,3.0,14.0,58,0.00,,,0.00,,2013-06-09 23:22:00,
2013-06-09 19:32:00,76.0,61.0,29.92,SE,145,11.0,18.0,59,0.00,,,0.00,,2013-06-09 23:32:00,
2013-06-09 19:43:00,76.0,61.0,29.92,SE,145,11.0,18.0,59,0.00,,,0.00,,2013-06-09 23:43:00,
2013-06-09 19:52:00,76.0,60.0,29.92,SE,138,10.0,15.0,58,0.00,,,0.00,,2013-06-09 23:52:00,
2013-06-09 20:02:00,75.0,60.0,29.92,South,188,2.0,14.0,59,0.00,,,0.00,,2013-06-10 00:02:00,
2013-06-09 20:13:00,75.0,60.0,29.92,South,188,2.0,14.0,59,0.00,,,0.00,,2013-06-10 00:13:00,
2013-06-09 20:22:00,75.0,59.0,29.93,SE,134,9.0,15.0,58,0.00,,,0.00,,2013-06-10 00:22:00,
2013-06-09 20:32:00,74.0,58.0,29.93,South,174,10.0,18.0,58,0.00,,,0.00,,2013-06-10 00:32:00,
2013-06-09 20:42:00,74.0,58.0,29.93,South,174,10.0,18.0,58,0.00,,,0.00,,2013-06-10 00:42:00,
2013-06-09 20:52:00,74.0,59.0,29.93,South,176,3.0,12.0,59,0.00,,,0.00,,2013-06-10 00:52:00,
2013-06-09 21:02:00,74.0,59.0,29.93,SE,145,4.0,9.0,59,0.00,,,0.00,,2013-06-10 01:02:00,
2013-06-09 21:12:00,74.0,59.0,29.93,SE,145,4.0,9.0,59,0.00,,,0.00,,2013-06-10 01:12:00,
2013-06-09 21:22:00,73.0,58.0,29.93,SSE,148,7.0,15.0,59,0.00,,,0.00,,2013-06-10 01:22:00,
2013-06-09 21:32:00,73.0,58.0,29.93,South,171,7.0,14.0,59,0.00,,,0.00,,2013-06-10 01:32:00,
2013-06-09 21:43:00,73.0,58.0,29.93,South,171,7.0,14.0,59,0.00,,,0.00,,2013-06-10 01:43:00,
2013-06-09 21:52:00,72.0,57.0,29.93,SSW,207,1.0,10.0,60,0.00,,,0.00,,2013-06-10 01:52:00,
2013-06-09 22:02:00,72.0,59.0,29.93,SE,134,4.0,9.0,63,0.00,,,0.00,,2013-06-10 02:02:00,
2013-06-09 22:12:00,72.0,59.0,29.93,SE,134,4.0,9.0,63,0.00,,,0.00,,2013-06-10 02:12:00,
2013-06-09 22:22:00,70.0,59.0,29.93,SE,136,0.0,4.0,69,0.00,,,0.00,,2013-06-10 02:22:00,
2013-06-09 22:32:00,68.0,59.0,29.93,SSE,148,3.0,5.0,74,0.00,,,0.00,,2013-06-10 02:32:00,
2013-06-09 22:42:00,68.0,59.0,29.93,SSE,148,3.0,5.0,74,0.00,,,0.00,,2013-06-10 02:42:00,
2013-06-09 22:52:00,69.0,58.0,29.92,SSE,165,6.0,9.0,67,0.00,,,0.00,,2013-06-10 02:52:00,
2013-06-09 23:02:00,69.0,57.0,29.92,SE,140,2.0,6.0,66,0.00,,,0.00,,2013-06-10 03:02:00,
2013-06-09 23:12:00,69.0,57.0,29.92,SE,140,2.0,6.0,66,0.00,,,0.00,,2013-06-10 03:12:00,
2013-06-09 23:22:00,69.0,56.0,29.93,SSE,155,1.0,12.0,64,0.00,,,0.00,,2013-06-10 03:22:00,
2013-06-09 23:33:00,69.0,57.0,29.92,SE,131,0.0,8.0,65,0.00,,,0.00,,2013-06-10 03:33:00,
2013-06-09 23:43:00,69.0,57.0,29.92,SE,131,0.0,8.0,65,0.00,,,0.00,,2013-06-10 03:43:00,
2013-06-09 23:53:00,68.0,55.0,29.92,SSE,152,3.0,6.0,64,0.00,,,0.00,,2013-06-10 03:53:00,